Вернуться в каталог

IRIDE-MS1-EAG2-8

АктивенНаукаSSO
NORAD 66702·PAYLOAD·🇮🇹 Italy

Запущен Nov 28, 2025 с Vandenberg Space Force Base

Loading…

Ближайшие Пролёты (ближайшие 24 часа)

TLE

СвежийSource: Space-Track

Эпоха: Sep 14, 2026, 14:53 UTC

1 66702U 25276AN  26257.62069428  .00005585  00000-0  25508-3 0  9998
2 66702  97.4118 329.7415 0005666  78.9801 281.2071 15.20970114 44010

Отслеживайте IRIDE-MS1-EAG2-8 в реальном времени с AllMySat

Download on the App Store